�������l�o���
Date,Time,MP-1(��Sv/h),MP-2(��Sv/h),MP-3(��Sv/h),MP-4(��Sv/h),MP-5(��Sv/h),MP-6(��Sv/h),MP-7(��Sv/h),MP-8(��Sv/h),����,����(m/s),���J
2023/03/18,00:00,0.568,0.831,0.503,1.052,0.736,0.325,0.585,0.556,�k��,5.0,��
2023/03/18,00:10,0.568,0.831,0.503,1.051,0.738,0.324,0.584,0.555,�k��,5.8,��
2023/03/18,00:20,0.568,0.833,0.504,1.051,0.737,0.324,0.585,0.555,�k��,6.1,��
2023/03/18,00:30,0.568,0.832,0.503,1.050,0.737,0.324,0.586,0.554,�k��,6.2,��
2023/03/18,00:40,0.568,0.832,0.503,1.051,0.738,0.324,0.587,0.553,�k��,5.1,��
2023/03/18,00:50,0.568,0.832,0.504,1.050,0.735,0.323,0.585,0.555,�k�k��,4.5,�L
2023/03/18,01:00,0.569,0.833,0.503,1.050,0.736,0.323,0.585,0.555,�k��,5.2,�L
2023/03/18,01:10,0.569,0.832,0.503,1.052,0.737,0.323,0.584,0.552,�k��,5.5,�L
2023/03/18,01:20,0.568,0.837,0.502,1.052,0.736,0.324,0.585,0.553,�k�k��,5.6,�L
2023/03/18,01:30,0.569,0.835,0.502,1.051,0.735,0.325,0.585,0.554,�k�k��,6.0,�L
2023/03/18,01:40,0.570,0.836,0.502,1.052,0.739,0.325,0.587,0.555,�k��,5.8,�L
2023/03/18,01:50,0.569,0.834,0.503,1.052,0.737,0.324,0.585,0.552,�k��,5.9,�L
2023/03/18,02:00,0.570,0.833,0.503,1.052,0.735,0.324,0.585,0.554,�k��,6.3,�L
2023/03/18,02:10,0.569,0.834,0.504,1.052,0.734,0.325,0.585,0.553,�k��,6.2,�L
2023/03/18,02:20,0.566,0.831,0.505,1.052,0.737,0.324,0.586,0.555,�k��,6.3,�L
2023/03/18,02:30,0.570,0.831,0.505,1.053,0.734,0.326,0.584,0.555,�k��,6.1,�L
2023/03/18,02:40,0.568,0.832,0.504,1.048,0.734,0.325,0.585,0.553,�k��,6.1,�L
2023/03/18,02:50,0.570,0.830,0.503,1.051,0.733,0.325,0.584,0.553,�k��,6.4,�L
2023/03/18,03:00,0.567,0.828,0.503,1.050,0.731,0.326,0.583,0.552,�k��,6.1,�L
2023/03/18,03:10,0.564,0.826,0.501,1.048,0.732,0.325,0.584,0.554,�k��,5.8,�L
2023/03/18,03:20,0.564,0.827,0.501,1.049,0.730,0.325,0.583,0.551,�k��,5.5,�L
2023/03/18,03:30,0.566,0.824,0.502,1.048,0.727,0.325,0.583,0.551,�k��,6.5,�L
2023/03/18,03:40,0.564,0.819,0.499,1.046,0.725,0.324,0.583,0.553,�k��,5.7,�L
2023/03/18,03:50,0.563,0.820,0.500,1.048,0.725,0.324,0.582,0.551,�k��,6.4,�L
2023/03/18,04:00,0.563,0.817,0.499,1.043,0.723,0.324,0.581,0.552,�k��,7.3,�L
2023/03/18,04:10,0.563,0.820,0.497,1.042,0.723,0.322,0.582,0.552,�k��,7.0,�L
2023/03/18,04:20,0.561,0.817,0.498,1.041,0.722,0.323,0.579,0.551,�k��,6.2,�L
2023/03/18,04:30,0.560,0.814,0.497,1.040,0.719,0.323,0.580,0.549,�k��,6.8,�L
2023/03/18,04:40,0.558,0.812,0.496,1.038,0.719,0.323,0.579,0.550,�k�k��,6.8,�L
2023/03/18,04:50,0.559,0.812,0.497,1.036,0.717,0.322,0.580,0.549,�k��,6.3,�L
2023/03/18,05:00,0.558,0.808,0.496,1.034,0.717,0.322,0.578,0.550,�k��,6.8,�L
2023/03/18,05:10,0.556,0.809,0.495,1.032,0.715,0.322,0.578,0.549,�k��,6.4,�L
2023/03/18,05:20,0.557,0.806,0.495,1.029,0.714,0.322,0.577,0.548,�k��,6.9,�L
2023/03/18,05:30,0.554,0.804,0.493,1.025,0.711,0.322,0.577,0.548,�k��,6.4,�L
2023/03/18,05:40,0.554,0.802,0.493,1.025,0.709,0.321,0.577,0.547,�k��,6.7,�L
2023/03/18,05:50,0.553,0.801,0.492,1.023,0.708,0.321,0.576,0.546,�k��,6.6,�L
2023/03/18,06:00,0.553,0.796,0.491,1.019,0.706,0.321,0.576,0.547,�k�k��,5.7,�L
2023/03/18,06:10,0.551,0.798,0.492,1.017,0.705,0.323,0.574,0.546,�k�k��,7.7,�L
2023/03/18,06:20,0.551,0.797,0.491,1.016,0.706,0.322,0.575,0.547,�k��,7.4,�L
2023/03/18,06:30,0.552,0.798,0.492,1.015,0.704,0.321,0.574,0.546,�k��,7.6,�L
2023/03/18,06:40,0.551,0.797,0.492,1.014,0.705,0.321,0.574,0.546,�k�k��,6.7,�L
2023/03/18,06:50,0.551,0.796,0.492,1.011,0.701,0.320,0.572,0.547,�k��,7.0,�L
2023/03/18,07:00,0.549,0.794,0.491,1.012,0.700,0.319,0.572,0.546,�k�k��,8.0,�L
2023/03/18,07:10,0.549,0.794,0.490,1.010,0.701,0.320,0.572,0.545,�k�k��,7.0,�L
2023/03/18,07:20,0.549,0.793,0.489,1.008,0.700,0.318,0.571,0.543,�k��,8.0,�L
2023/03/18,07:30,0.547,0.793,0.489,1.006,0.699,0.317,0.573,0.544,�k��,7.5,�L
2023/03/18,07:40,0.546,0.792,0.489,1.004,0.698,0.318,0.572,0.544,�k��,7.8,�L
2023/03/18,07:50,0.546,0.792,0.489,1.001,0.698,0.318,0.571,0.543,�k�k��,7.3,�L
2023/03/18,08:00,0.544,0.790,0.488,1.001,0.695,0.315,0.570,0.542,�k��,8.1,�L
2023/03/18,08:10,0.544,0.787,0.485,0.998,0.692,0.317,0.571,0.543,�k��,8.3,�L
2023/03/18,08:20,0.543,0.786,0.485,0.995,0.692,0.317,0.570,0.542,-,CALM,�L
2023/03/18,08:30,0.543,0.785,0.483,0.995,0.688,0.318,0.568,0.542,�k��,10.9,�L
2023/03/18,08:40,0.542,0.784,0.486,0.996,0.690,0.316,0.569,0.542,�k�k��,9.3,�L
2023/03/18,08:50,0.542,0.783,0.485,0.992,0.686,0.318,0.567,0.541,�k��,8.9,�L
2023/03/18,09:00,0.543,0.786,0.486,0.992,0.686,0.318,0.567,0.543,�k�k��,7.1,�L
2023/03/18,09:10,0.543,0.785,0.486,0.993,0.685,0.319,0.566,0.542,�k�k��,9.8,�L
2023/03/18,09:20,0.540,0.783,0.483,0.989,0.686,0.319,0.566,0.543,�k�k��,10.5,�L
2023/03/18,09:30,0.542,0.783,0.486,0.991,0.684,0.319,0.566,0.543,�k�k��,7.9,�L
2023/03/18,09:40,0.543,0.783,0.487,0.992,0.686,0.319,0.566,0.542,�k�k��,6.5,�L
2023/03/18,09:50,0.545,0.786,0.486,0.992,0.687,0.318,0.568,0.544,�k�k��,8.9,�L
2023/03/18,10:00,0.545,0.782,0.486,0.990,0.687,0.318,0.568,0.542,�k�k��,8.6,�L
2023/03/18,10:10,0.545,0.784,0.488,0.991,0.685,0.319,0.570,0.542,�k�k��,8.7,�L
2023/03/18,10:20,0.544,0.785,0.487,0.992,0.685,0.319,0.569,0.543,�k�k��,8.1,�L
2023/03/18,10:30,0.545,0.784,0.486,0.988,0.685,0.319,0.569,0.542,�k�k��,8.4,�L
2023/03/18,10:40,0.545,0.783,0.486,0.990,0.684,0.320,0.567,0.541,�k�k��,6.3,�L
2023/03/18,10:50,0.542,0.780,0.486,0.988,0.683,0.319,0.567,0.543,�k�k��,7.4,�L
2023/03/18,11:00,0.542,0.783,0.486,0.988,0.683,0.318,0.567,0.542,�k�k��,8.2,�L
2023/03/18,11:10,0.543,0.782,0.485,0.985,0.683,0.319,0.568,0.541,�k��,9.9,�L
2023/03/18,11:20,0.541,0.782,0.484,0.985,0.682,0.318,0.568,0.542,�k�k��,6.7,�L
2023/03/18,11:30,0.541,0.780,0.485,0.985,0.680,0.318,0.568,0.542,�k�k��,7.9,�L
2023/03/18,11:40,0.542,0.782,0.487,0.985,0.678,0.319,0.567,0.542,�k�k��,7.6,�L
2023/03/18,11:50,0.542,0.781,0.484,0.986,0.679,0.317,0.567,0.541,�k�k��,9.3,�L
2023/03/18,12:00,0.540,0.779,0.482,0.984,0.678,0.317,0.566,0.543,�k�k��,9.0,�L
2023/03/18,12:10,0.539,0.778,0.483,0.983,0.677,0.317,0.566,0.541,�k�k��,9.3,�L
2023/03/18,12:20,0.540,0.780,0.483,0.983,0.675,0.318,0.565,0.540,�k��,9.9,�L
2023/03/18,12:30,0.538,0.778,0.483,0.984,0.676,0.317,0.564,0.541,�k��,8.3,�L
2023/03/18,12:40,0.539,0.778,0.482,0.985,0.676,0.317,0.565,0.540,�k��,7.4,�L
2023/03/18,12:50,0.540,0.776,0.482,0.983,0.674,0.318,0.564,0.540,�k��,8.6,�L
2023/03/18,13:00,0.539,0.777,0.482,0.980,0.677,0.318,0.567,0.540,�k��,10.5,�L
2023/03/18,13:10,0.540,0.778,0.483,0.983,0.675,0.318,0.566,0.542,�k��,8.6,�L
2023/03/18,13:20,0.540,0.778,0.483,0.984,0.675,0.317,0.565,0.541,�k��,7.9,�L
2023/03/18,13:30,0.539,0.778,0.482,0.983,0.676,0.317,0.563,0.540,�k�k��,9.1,�L
2023/03/18,13:40,0.541,0.779,0.481,0.984,0.675,0.316,0.563,0.540,�k�k��,7.9,�L
2023/03/18,13:50,0.542,0.780,0.481,0.986,0.675,0.316,0.565,0.540,�k�k��,7.6,�L
2023/03/18,14:00,0.539,0.779,0.482,0.986,0.675,0.317,0.566,0.541,�k�k��,7.1,�L
2023/03/18,14:10,0.540,0.779,0.481,0.986,0.675,0.316,0.565,0.540,�k�k��,8.4,�L
2023/03/18,14:20,0.539,0.777,0.481,0.984,0.676,0.316,0.565,0.542,�k�k��,7.7,�L
2023/03/18,14:30,0.539,0.776,0.482,0.982,0.675,0.317,0.565,0.538,�k�k��,9.2,�L
2023/03/18,14:40,0.539,0.777,0.482,0.979,0.673,0.316,0.564,0.540,�k�k��,7.7,�L
2023/03/18,14:50,0.539,0.777,0.481,0.984,0.673,0.316,0.566,0.541,�k�k��,8.8,�L
2023/03/18,15:00,0.538,0.776,0.482,0.981,0.673,0.317,0.566,0.539,�k�k��,9.6,�L
2023/03/18,15:10,0.538,0.774,0.481,0.980,0.670,0.317,0.565,0.540,-,CALM,�L
2023/03/18,15:20,0.538,0.776,0.480,0.980,0.672,0.317,0.566,0.540,-,CALM,�L
2023/03/18,15:30,0.538,0.773,0.482,0.980,0.671,0.316,0.564,0.539,�k�k��,11.6,�L
2023/03/18,15:40,0.536,0.772,0.481,0.980,0.672,0.315,0.563,0.540,�k�k��,2.9,�L
2023/03/18,15:50,0.536,0.772,0.480,0.979,0.670,0.315,0.562,0.539,�k�k��,11.6,�L
2023/03/18,16:00,0.538,0.770,0.479,0.980,0.666,0.317,0.562,0.540,�k��,7.6,�L
2023/03/18,16:10,0.537,0.773,0.481,0.978,0.666,0.317,0.561,0.538,�k�k��,6.1,�L
2023/03/18,16:20,0.536,0.773,0.480,0.979,0.670,0.316,0.564,0.541,�k�k��,9.1,�L
2023/03/18,16:30,0.538,0.774,0.480,0.980,0.671,0.316,0.564,0.540,�k�k��,9.1,�L
2023/03/18,16:40,0.539,0.775,0.481,0.979,0.670,0.315,0.563,0.539,�k�k��,9.0,�L
2023/03/18,16:50,0.539,0.777,0.481,0.983,0.672,0.315,0.561,0.540,�k�k��,9.2,�L
2023/03/18,17:00,0.540,0.777,0.481,0.983,0.674,0.316,0.564,0.538,�k�k��,7.7,�L
2023/03/18,17:10,0.539,0.779,0.481,0.985,0.673,0.315,0.565,0.539,�k�k��,9.2,�L
2023/03/18,17:20,0.540,0.778,0.480,0.984,0.675,0.315,0.565,0.541,�k�k��,7.5,�L
2023/03/18,17:30,0.538,0.780,0.480,0.982,0.674,0.315,0.565,0.540,�k�k��,7.5,�L
2023/03/18,17:40,0.539,0.780,0.479,0.983,0.676,0.314,0.564,0.539,�k�k��,7.6,�L
2023/03/18,17:50,0.538,0.780,0.479,0.982,0.672,0.314,0.566,0.539,�k�k��,8.6,��
2023/03/18,18:00,0.539,0.780,0.476,0.985,0.674,0.314,0.565,0.541,�k�k��,9.1,�L
2023/03/18,18:10,0.539,0.780,0.478,0.985,0.675,0.314,0.565,0.539,�k�k��,7.9,�L
2023/03/18,18:20,0.539,0.781,0.477,0.987,0.677,0.315,0.565,0.541,�k�k��,8.4,�L
2023/03/18,18:30,0.539,0.781,0.479,0.989,0.677,0.313,0.564,0.540,�k�k��,8.4,�L
2023/03/18,18:40,0.538,0.780,0.478,0.987,0.677,0.314,0.566,0.540,�k�k��,7.6,��
2023/03/18,18:50,0.539,0.779,0.477,0.989,0.677,0.312,0.566,0.540,�k�k��,8.0,��
2023/03/18,19:00,0.539,0.782,0.479,0.988,0.676,0.313,0.566,0.540,�k�k��,7.4,��
2023/03/18,19:10,0.538,0.782,0.480,0.986,0.676,0.314,0.565,0.540,�k�k��,8.3,��
2023/03/18,19:20,0.538,0.780,0.478,0.987,0.677,0.313,0.566,0.539,�k�k��,7.8,��
2023/03/18,19:30,0.539,0.781,0.478,0.989,0.677,0.313,0.566,0.541,�k��,8.2,��
2023/03/18,19:40,0.540,0.782,0.479,0.987,0.678,0.314,0.566,0.540,�k��,8.8,��
2023/03/18,19:50,0.539,0.782,0.478,0.990,0.678,0.313,0.567,0.539,�k��,8.0,��
2023/03/18,20:00,0.539,0.782,0.479,0.989,0.677,0.314,0.565,0.540,�k��,8.5,��
2023/03/18,20:10,0.540,0.782,0.478,0.988,0.677,0.314,0.566,0.541,�k�k��,7.3,��
2023/03/18,20:20,0.541,0.782,0.477,0.991,0.678,0.312,0.567,0.541,�k�k��,8.0,��
2023/03/18,20:30,0.541,0.784,0.477,0.990,0.679,0.312,0.567,0.540,�k�k��,6.3,��
2023/03/18,20:40,0.538,0.783,0.480,0.991,0.678,0.313,0.568,0.540,�k��,7.6,��
2023/03/18,20:50,0.540,0.783,0.477,0.989,0.678,0.313,0.567,0.540,�k��,7.0,��
2023/03/18,21:00,0.541,0.783,0.480,0.990,0.679,0.312,0.568,0.540,�k��,6.7,��
2023/03/18,21:10,0.540,0.783,0.479,0.991,0.681,0.313,0.569,0.541,�k�k��,5.1,��
2023/03/18,21:20,0.540,0.782,0.480,0.989,0.679,0.313,0.567,0.540,�k�k��,5.5,��
2023/03/18,21:30,0.540,0.784,0.479,0.990,0.679,0.313,0.567,0.541,�k��,5.7,��
2023/03/18,21:40,0.541,0.782,0.481,0.992,0.680,0.313,0.569,0.540,�k�k��,6.2,��
2023/03/18,21:50,0.542,0.785,0.479,0.994,0.682,0.313,0.568,0.541,�k�k��,6.8,��
2023/03/18,22:00,0.542,0.784,0.480,0.992,0.681,0.314,0.568,0.540,�k��,7.1,��
2023/03/18,22:10,0.543,0.784,0.480,0.992,0.681,0.313,0.569,0.541,�k��,6.9,��
2023/03/18,22:20,0.542,0.785,0.480,0.993,0.682,0.313,0.567,0.541,�k��,6.4,��
2023/03/18,22:30,0.541,0.783,0.478,0.994,0.683,0.314,0.568,0.542,�k��,6.8,��
2023/03/18,22:40,0.542,0.785,0.480,0.992,0.684,0.314,0.568,0.542,�k��,6.7,��
2023/03/18,22:50,0.542,0.785,0.479,0.992,0.682,0.314,0.568,0.540,�k��,6.3,��
2023/03/18,23:00,0.542,0.784,0.481,0.993,0.682,0.312,0.568,0.542,�k��,7.2,��
2023/03/18,23:10,0.541,0.784,0.480,0.994,0.684,0.315,0.568,0.540,�k��,8.0,��
2023/03/18,23:20,0.542,0.785,0.480,0.993,0.684,0.315,0.569,0.541,�k��,7.3,��
2023/03/18,23:30,0.543,0.784,0.482,0.993,0.683,0.314,0.568,0.541,�k��,7.6,��
2023/03/18,23:40,0.541,0.788,0.482,0.997,0.686,0.314,0.569,0.540,�k�k��,7.1,��
2023/03/18,23:50,0.541,0.785,0.481,0.993,0.683,0.315,0.569,0.540,�k�k��,6.5,��
